Skip Page Navigation
NASA JPL Caltech
NASA Logo - Jet Propulsion Laboratory + View the NASA Portal
+ Center for Near-Earth Object Studies
JPL Home Earth Solar System Stars & Galaxies Technology
JPL Solar System Dynamics
BODIES ORBITS EPHEMERIDES TOOLS PHYSICAL DATA DISCOVERY FAQ SITE MAP
JPL Small-Body Database Browser
Search: [ help ]  
134805 (2000 EV114)
Classification: Main-belt Asteroid          SPK-ID: 2134805
Ephemeris | Orbit Diagram | Orbital Elements | Mission Design | Physical Parameters | Discovery Circumstances | Close-Approach Data ]

[ show orbit diagram ]
Orbital Elements at Epoch 2459200.5 (2020-Dec-17.0) TDB
Reference: JPL 18 (heliocentric ecliptic J2000)
 Element Value Uncertainty (1-sigma)   Units 
e .1787704287195887 3.9414e-08  
a 2.520067690106653 1.129e-08 au
q 2.069554108743903 9.9227e-08 au
i 4.932634681970022 7.7685e-06 deg
node 182.585139292511 3.9196e-05 deg
peri 239.9134940014068 4.6103e-05 deg
M 152.3219948362261 2.4046e-05 deg
tp 2458582.231878844534
(2019-Apr-08.73187884)
9.6595e-05 TDB
period 1461.223796703017
4.00
9.8196e-06
2.688e-08
d
yr
n .2463688319422896 1.6556e-09 deg/d
Q 2.970581271469403 1.3308e-08 au
  Orbit Determination Parameters
   # obs. used (total)      560  
   data-arc span      10306 days (28.22 yr)  
   first obs. used      1992-03-03  
   last obs. used      2020-05-21  
   planetary ephem.      DE441  
   SB-pert. ephem.      SB441-N16  
   condition code      0  
   norm. resid. RMS      .57922  
   source      ORB  
   producer      Otto Matic  
   solution date      2021-Apr-13 18:10:01  

Additional Information
 Earth MOID = 1.08689 au 
 Jupiter MOID = 2.36982 au 
 T_jup = 3.429 
[ show covariance matrix ]

Ephemeris | Orbit Diagram | Orbital Elements | Mission Design | Physical Parameters | Discovery Circumstances | Close-Approach Data ]

Physical Parameter Table
Parameter Symbol Value Units Sigma Reference Notes
absolute magnitude H 16.3   n/a MPO469414  
diameter diameter 2.953 km 1.081 urn:nasa:pds:neowise_diameters_albedos::2.0[mainbelt] (http://adsabs.harvard.edu/abs/2011ApJ...741...68M)  
geometric albedo albedo 0.088   0.076 urn:nasa:pds:neowise_diameters_albedos::2.0[mainbelt] (http://adsabs.harvard.edu/abs/2011ApJ...741...68M)  

134805 (2000 EV114)          Discovered 2000-Mar-10 by Spacewatch at Kitt Peak
Reference: 20060907/Numbers.arcLast Updated: 2006-09-10

[ show close-approach data ]
Alternate Designations
 2000 EV114 = 1998 SF148 
Ephemeris | Orbit Diagram | Orbital Elements | Mission Design | Physical Parameters | Discovery Circumstances | Close-Approach Data ]
ABOUT SSD CREDITS/AWARDS PRIVACY/COPYRIGHT GLOSSARY LINKS
FirstGov 2021-Apr-16 00:38 UT
(server date/time)  
NASA Home Page
Site Manager:   Ryan S. Park
Webmaster  Alan B. Chamberlin